Regional Weather Roundup
Issued by NWS

Home | Current Version | Previous Version | Graphics & Text | Print | Product List | Glossary On
Versions: 1 2 3 4 5 6 7 8 9 10 11 12 13 14 15 16 17 18 19 20 21 22 23 24 25 26 27 28 29 30 31 32 33 34 35 36 37 38 39 40 41 42 43 44 45 46 47 48 49 50
000
ASUS43 KLSX 291907
RWRMO

WEATHER SUMMARY FOR MISSOURI
NATIONAL WEATHER SERVICE SPRINGFIELD MO
100 PM CST THU JAN 29 2015

NOTE: "FAIR" INDICATES FEW OR NO CLOUDS BELOW 12,000 FEET WITH NO
       SIGNIFICANT WEATHER AND/OR OBSTRUCTIONS TO VISIBILITY.
       CURRENT SKY AND/OR WEATHER CONDITIONS ARE NOT AVAILABLE FOR
       CHILLICOTHE AND FARMINGTON.

MOZ001>031-035>038-043-044-053-054-292000-
...NORTHERN AND WESTERN MISSOURI...

CITY           SKY/WX    TMP DP  RH WIND       PRES   REMARKS
KANSAS CTY INT CLOUDY    40  28  62 N20G25    30.35S
KANSAS C DTWN  CLOUDY    43  27  53 NW18G25   30.36R
LEE`S SUMMIT   CLOUDY    41  26  55 NW22G29   30.35R
ST JOSEPH      CLOUDY    41  27  57 N20       30.38R
CHILLICOTHE      N/A     40  29  64 NW14G29   30.31R
KIRKSVILLE     FLURRIES  37  30  75 NW22G29   30.24R WCI  26

$$
MOZ066>068-077>081-088>096-101>105-292000-
...SOUTHWEST MISSOURI...

CITY           SKY/WX    TMP DP  RH WIND       PRES   REMARKS
SPRINGFIELD    CLOUDY    40  30  67 NW14      30.30S
JOPLIN         CLOUDY    43  29  57 NW21      30.37F

$$
MOZ032>034-039>042-045>050-055>058-069>072-292000-
...CENTRAL MISSOURI...

CITY           SKY/WX    TMP DP  RH WIND       PRES   REMARKS
COLUMBIA       CLOUDY    40  30  67 NW15      30.24R
JEFFERSON CITY CLOUDY    41  28  60 NW17G26   30.26R
ROLLA          CLOUDY    39  28  64 NW20G29   30.21R WCI  29
SEDALIA        CLOUDY    42  29  59 NW20G26   30.30R
WHITEMAN AFB   CLOUDY    42  28  57 NW17G25   30.30F
WARRENSBURG    CLOUDY    41  28  60 NW18G24   30.33S
OSAGE BEACH    CLOUDY    39  27  60 NW9G22    30.27S

$$
MOZ051-052-059>065-292000-
...EAST CENTRAL MISSOURI...

CITY           SKY/WX    TMP DP  RH WIND       PRES   REMARKS
ST LOUIS INTL  CLOUDY    43  30  60 NW16G25   30.16R
SPIRIT OF STL  CLOUDY    41  30  65 NW17G23   30.18R
ST CHARLES     CLOUDY    41  31  67 NW15      30.16R

$$
MOZ072>076-082>087-097>100-106>115-292000-
...SOUTH CENTRAL AND SOUTHEAST MISSOURI...

CITY           SKY/WX    TMP DP  RH WIND       PRES   REMARKS
CAPE GIRARDEAU CLOUDY    44  34  67 NW22G29   30.16R
FARMINGTON     CLOUDY    39  28  65 NW9       30.21R
POPLAR BLUFF   CLOUDY    47  33  58 NW23G32   30.15R
WEST PLAINS    CLOUDY    40  31  70 NW17G28   30.25R

$$



USA.gov is the U.S. government's official web portal to all federal, state and local government web resources and services.